Flag for Germany Weather past 2 weeks in Oberhausen, North Rhine-Westphalia, Germany

Now
45 °F

Partly cloudy.


Feels Like: 37 °F
Forecast: 47 / 53 °F
Wind: 16 mph from Southwest

Location: Duesseldorf

Current Time: Dec 21, 2014 at 6:23:54 PM

Latest Report: Dec 21, 2014 at 5:50 PM


Visibility: 4 mi

Pressure: 30.27 "Hg

Humidity: 93%

Dew point: 43 °F

Location of OberhausenLocation

Historic Weather in Oberhausen — Graph

°F

Oberhausen temperature yesterday

Maximum temperature yesterday: 46 °F (at 3:50 PM)
Minimum temperature yesterday: 39 °F (at 4:20 AM)
Average temperature yesterday: 43 °F

Past Weeks' High & Low Weather Summary

 TemperatureHumidityPressure
High55 °F (Dec 18, 4:50 PM)100% (Dec 8, 5:20 AM)30.39 "Hg (Dec 8, 5:20 AM)
Low30 °F (Dec 14, 5:50 AM)61% (Dec 7, 1:50 PM)29.42 "Hg (Dec 12, 12:50 PM)
Average42 °F87%29.96 "Hg
* Reported Dec 6 5:20 PM — Dec 21 5:20 PM, Oberhausen, Weather by CustomWeather, © 2014

Note: Actual official high and low records may vary slightly from our data, if they occured in-between our weather recording intervals... More about our weather records

Advertising

Oberhausen weather history for previous 24 hours

 ConditionsComfort  
Time TempWeatherWind HumidityBarometerVisibility
5:20 PM
Dec 21
45 °FPartly cloudy.17 mph93%30.27 "HgN/A
4:50 PM45 °FPassing clouds.17 mph93%30.27 "HgN/A
4:20 PM45 °FDrizzle. Broken clouds.14 mph93%30.27 "HgN/A
3:50 PM45 °FDrizzle. Broken clouds.16 mph93%30.27 "Hg6 mi
3:20 PM45 °FDrizzle. More clouds than sun.15 mph87%30.30 "HgN/A
2:50 PM45 °FLight rain. More clouds than sun.17 mph87%30.30 "HgN/A
2:20 PM45 °FLight rain. Partly sunny.15 mph81%30.33 "HgN/A
1:50 PM45 °FLight rain. Partly sunny.15 mph81%30.33 "HgN/A
1:20 PM45 °FPartly sunny.13 mph81%30.33 "HgN/A
12:50 PM45 °FBroken clouds.15 mph87%30.36 "HgN/A
12:20 PM45 °FPartly sunny.15 mph81%30.36 "HgN/A
11:50 AM45 °FPartly sunny.16 mph81%30.36 "HgN/A
11:20 AM43 °FPartly sunny.16 mph87%30.39 "HgN/A
10:50 AM43 °FPartly sunny.15 mph87%30.39 "HgN/A
10:20 AM43 °FPartly sunny.12 mph87%30.39 "HgN/A
9:50 AM41 °FBroken clouds.12 mph93%30.39 "HgN/A
9:20 AM41 °FBroken clouds.12 mph93%30.39 "HgN/A
8:50 AM41 °FBroken clouds.14 mph93%30.39 "HgN/A
8:20 AM39 °FPassing clouds.12 mph100%30.39 "HgN/A
7:50 AM39 °FPassing clouds.10 mph93%30.39 "HgN/A
7:20 AM37 °FPassing clouds.12 mph100%30.39 "HgN/A
6:50 AM37 °FPassing clouds.9 mph100%30.39 "HgN/A
6:20 AM39 °FPassing clouds.9 mph87%30.39 "HgN/A
5:50 AM41 °FClear.10 mph87%30.39 "Hg10 mi
5:20 AM41 °FClear.10 mph87%30.39 "Hg10 mi
4:50 AM41 °FClear.9 mph93%30.39 "Hg10 mi
4:20 AM41 °FPassing clouds.12 mph93%30.39 "HgN/A
3:50 AM41 °FPassing clouds.10 mph87%30.39 "HgN/A
3:20 AM41 °FPassing clouds.9 mph87%30.39 "HgN/A
2:50 AM41 °FClear.8 mph87%30.39 "Hg10 mi
2:20 AM41 °FClear.9 mph87%30.36 "Hg10 mi
1:20 AM41 °FClear.9 mph87%30.33 "Hg10 mi
12:50 AM41 °FClear.8 mph87%30.33 "Hg10 mi
12:20 AM41 °FClear.9 mph87%30.33 "Hg10 mi
11:50 PM
Dec 20
41 °FClear.10 mph87%30.33 "Hg10 mi
11:20 PM41 °FClear.10 mph87%30.30 "Hg10 mi
10:50 PM41 °FClear.8 mph87%30.30 "Hg10 mi
10:20 PM43 °FPassing clouds.8 mph81%30.30 "HgN/A
9:50 PM43 °FPassing clouds.10 mph81%30.27 "HgN/A
9:20 PM43 °FPassing clouds.7 mph81%30.27 "HgN/A
8:50 PM43 °FSprinkles. Passing clouds.9 mph81%30.24 "HgN/A
8:20 PM43 °FPassing clouds.12 mph81%30.24 "HgN/A
7:50 PM43 °FPassing clouds.12 mph81%30.21 "HgN/A
7:20 PM43 °FPassing clouds.14 mph76%30.18 "HgN/A
6:50 PM43 °FPassing clouds.15 mph81%30.18 "HgN/A
6:20 PM43 °FPassing clouds.12 mph87%30.15 "HgN/A
Weather by CustomWeather, © 2014

See weather overviewHow to use our weather pages